Location: Newark
(25.0000°N, 73.5000°E)
Time: 07:59:29
(UTC+00:00)

METEOR 2-6 DEB - Visible Passes

Search period start: 21 June 2021 00:00
Search period end: 01 July 2021 00:00
Orbit: 820 x 877 km, 81.2° (Epoch: 19 June)

Date Brightness Start Highest point End Pass type
(mag) Time Alt. Az. Time Alt. Az. Time Alt. Az.
21 Jun ? 16:29:35 10° NNE 16:33:11 29° NE 16:33:11 29° NE visible
21 Jun ? 18:13:18 10° NW 18:15:10 16° WNW 18:15:10 16° WNW visible
22 Jun ? 16:17:12 10° NNE 16:20:58 28° NE 16:20:58 28° NE visible
22 Jun ? 18:00:31 10° NW 18:02:57 19° WNW 18:02:57 19° WNW visible
23 Jun ? 16:04:51 10° NNE 16:08:46 26° ENE 16:08:46 26° ENE visible
23 Jun ? 17:47:48 10° NW 17:50:46 22° WNW 17:50:46 22° WNW visible
24 Jun ? 15:52:32 10° NNE 15:56:36 24° ENE 15:56:36 24° ENE visible
24 Jun ? 17:35:06 10° NW 17:38:35 25° WNW 17:38:35 25° WNW visible
25 Jun ? 15:40:13 10° NNE 15:44:26 22° ENE 15:44:26 22° ENE visible
25 Jun ? 17:22:25 10° NNW 17:26:25 29° WNW 17:26:25 29° WNW visible
26 Jun ? 15:27:57 10° NNE 15:31:58 20° ENE 15:32:18 20° E visible
26 Jun ? 17:09:46 10° NNW 17:14:17 34° W 17:14:17 34° W visible
27 Jun ? 15:15:43 10° NE 15:19:23 18° ENE 15:20:11 17° E visible
27 Jun ? 16:57:08 10° NNW 17:02:10 38° W 17:02:10 38° W visible
28 Jun ? 15:03:34 10° NE 15:06:49 16° ENE 15:08:05 15° E visible
28 Jun ? 16:44:31 10° NNW 16:49:48 43° W 16:50:05 43° W visible
29 Jun ? 14:51:29 10° NE 14:54:15 14° ENE 14:56:02 12° E visible
29 Jun ? 16:31:55 10° NNW 16:37:18 48° W 16:38:02 46° WSW visible
30 Jun ? 14:39:34 10° NE 14:41:39 12° ENE 14:43:44 10° E visible
30 Jun ? 16:19:19 10° NNW 16:24:47 55° W 16:25:59 45° SW visible
